Istanbul, Turkey

11:21 PM +03 on April 23, 2017 (GMT +0300)
Ataturk

Weather History for LTBA - July, 2011

Change the Weather History Date:

Thursday, July 7, 2011

  Actual Average Record
Temperature  
Mean Temperature 76 °F -  
Max Temperature 84 °F 83 °F 90 °F (2012)
Min Temperature 68 °F 69 °F 62 °F (1998)
Cooling Degree Days 11    
Growing Degree Days 26 (Base 50)    
Moisture  
Dew Point 59 °F    
Average Humidity 56    
Maximum Humidity 94    
Minimum Humidity 22    
Precipitation  
Precipitation 0.00 in - - ()
Sea Level Pressure  
Sea Level Pressure 29.90 in    
Wind  
Wind Speed 6 mph ()    
Max Wind Speed 12 mph    
Max Gust Speed -    
Visibility 6.2 miles    
Events      
Averages and records for this station are not official NWS values.
T = Trace of Precipitation, MM = Missing Value Source: Averaged Metar Reports

Daily Weather History Graph

Daily Weather History Graph

Search for Another Location

Airport or City:

Trip Planner

Search our weather history database for the weather conditions in past years. The results will help you decide how hot, cold, wet, or windy it might be!

Date:

Astronomy

Jul. 07, 2011 Rise Set
Actual Time 5:39 AM EEST 8:39 PM EEST
Civil Twilight 5:06 AM EEST 9:12 PM EEST
Nautical Twilight 4:24 AM EEST 9:54 PM EEST
Astronomical Twilight 3:34 AM EEST 10:43 PM EEST
Moon 12:31 PM EEST (7/7) No Moon Set
Length of Visible Light 16h 06m
Length of Day
14h 59m
Waxing Crescent, 40% of the Moon is Illuminated
Jul 7
Waxing Crescent
Jul 8
First Quarter
Jul 15
Full
Jul 23
Last Quarter
Jul 30
New

Hourly Weather History & Observations

Time (EEST) Temp. Heat Index Dew Point Humidity Pressure Visibility Wind Dir Wind Speed Gust Speed Precip Events Conditions
12:20 AM 73.4 °F - 66.2 °F 78% 29.83 in 6.2 mi Variable 6.9 mph - N/A   Scattered Clouds
12:50 AM 73.4 °F - 64.4 °F 73% 29.83 in 6.2 mi NE 6.9 mph - N/A   Scattered Clouds
1:20 AM 71.6 °F - 64.4 °F 78% 29.83 in 6.2 mi North 9.2 mph - N/A   Scattered Clouds
1:50 AM 71.6 °F - 64.4 °F 78% 29.83 in 6.2 mi North 9.2 mph - N/A   Scattered Clouds
2:20 AM 71.6 °F - 64.4 °F 78% 29.83 in 6.2 mi North 8.1 mph - N/A   Scattered Clouds
2:50 AM 71.6 °F - 64.4 °F 78% 29.83 in 6.2 mi NNE 4.6 mph - N/A   Partly Cloudy
3:00 AM 72 °F - 64 °F 69% 29.84 in 6 mi NNE 4.6 mph - -   Scattered Clouds
3:20 AM 69.8 °F - 62.6 °F 78% 29.83 in 6.2 mi NNW 4.6 mph - N/A   Partly Cloudy
3:50 AM 69.8 °F - 64.4 °F 83% 29.83 in 6.2 mi North 6.9 mph - N/A   Partly Cloudy
4:20 AM 69.8 °F - 64.4 °F 83% 29.86 in 6.2 mi North 4.6 mph - N/A   Partly Cloudy
4:50 AM 68.0 °F - 64.4 °F 88% 29.86 in 6.2 mi NNW 5.8 mph - N/A   Partly Cloudy
5:20 AM 68.0 °F - 64.4 °F 88% 29.86 in 6.2 mi NNW 4.6 mph - N/A   Partly Cloudy
5:50 AM 68.0 °F - 66.2 °F 94% 29.86 in 6.2 mi NNW 2.3 mph - N/A   Partly Cloudy
6:20 AM 69.8 °F - 66.2 °F 88% 29.86 in 6.2 mi NW 5.8 mph - N/A   Partly Cloudy
6:50 AM 71.6 °F - 66.2 °F 83% 29.89 in 6.2 mi NW 4.6 mph - N/A   Partly Cloudy
7:20 AM 73.4 °F - 64.4 °F 73% 29.89 in 6.2 mi NW 4.6 mph - N/A   Partly Cloudy
7:50 AM 75.2 °F - 62.6 °F 65% 29.89 in 6.2 mi NW 3.5 mph - N/A   Partly Cloudy
8:20 AM 77.0 °F - 59.0 °F 54% 29.89 in 6.2 mi Variable 2.3 mph - N/A   Partly Cloudy
8:50 AM 77.0 °F - 57.2 °F 50% 29.89 in 6.2 mi WNW 4.6 mph - N/A   Partly Cloudy
9:00 AM 78 °F - 57 °F 38% 29.90 in 6 mi WNW 4.6 mph - -   Scattered Clouds
9:20 AM 80.6 °F 80.8 °F 57.2 °F 45% 29.89 in - WNW 5.8 mph - N/A   Clear
9:50 AM 77.0 °F - 60.8 °F 57% 29.89 in - South 8.1 mph - N/A   Clear
10:20 AM 77.0 °F - 62.6 °F 61% 29.92 in - South 8.1 mph - N/A   Clear
10:50 AM 77.0 °F - 62.6 °F 61% 29.92 in - SSW 6.9 mph - N/A   Clear
11:20 AM 78.8 °F - 60.8 °F 54% 29.92 in - South 6.9 mph - N/A   Clear
11:50 AM 78.8 °F - 60.8 °F 54% 29.92 in 6.2 mi SSW 8.1 mph - N/A   Partly Cloudy
12:20 PM 78.8 °F - 60.8 °F 54% 29.92 in - SSW 9.2 mph - N/A   Clear
12:50 PM 78.8 °F - 60.8 °F 54% 29.92 in 6.2 mi SSW 8.1 mph - N/A   Partly Cloudy
1:20 PM 80.6 °F 81.5 °F 60.8 °F 51% 29.92 in - SSW 6.9 mph - N/A   Clear
1:50 PM 80.6 °F 81.8 °F 62.6 °F 54% 29.92 in - SSW 6.9 mph - N/A   Clear
2:20 PM 80.6 °F 81.8 °F 62.6 °F 54% 29.92 in 6.2 mi SW 6.9 mph - N/A   Partly Cloudy
2:50 PM 80.6 °F 81.5 °F 60.8 °F 51% 29.92 in 6.2 mi SW 8.1 mph - N/A   Partly Cloudy
3:00 PM 80 °F - 61 °F 41% 29.91 in 6 mi SW 8.1 mph - -   Scattered Clouds
3:20 PM 82.4 °F 82.0 °F 57.2 °F 42% 29.92 in 6.2 mi SSW 6.9 mph - N/A   Partly Cloudy
3:50 PM 84.2 °F 83.8 °F 59.0 °F 42% 29.92 in 6.2 mi South 6.9 mph - N/A   Partly Cloudy
4:20 PM 82.4 °F 82.5 °F 59.0 °F 45% 29.92 in 6.2 mi SW 5.8 mph - N/A   Partly Cloudy
4:50 PM 82.4 °F 82.0 °F 57.2 °F 42% 29.92 in 6.2 mi SSW 5.8 mph - N/A   Partly Cloudy
5:20 PM 82.4 °F 82.5 °F 59.0 °F 45% 29.92 in 6.2 mi Variable 4.6 mph - N/A   Partly Cloudy
5:50 PM 82.4 °F 82.0 °F 57.2 °F 42% 29.92 in - SSW 4.6 mph - N/A   Clear
6:20 PM 84.2 °F 83.5 °F 57.2 °F 40% 29.92 in - SW 3.5 mph - N/A   Clear
6:50 PM 84.2 °F - 51.8 °F 33% 29.92 in - NNE 11.5 mph - N/A   Clear
7:20 PM 82.4 °F 81.4 °F 53.6 °F 37% 29.92 in - NNE 10.4 mph - N/A   Clear
7:50 PM 82.4 °F - 51.8 °F 35% 29.92 in - Variable 6.9 mph - N/A   Clear
8:20 PM 84.2 °F - 51.8 °F 33% 29.92 in - Variable 9.2 mph - N/A   Clear
8:50 PM 82.4 °F - 50.0 °F 32% 29.95 in - NE 6.9 mph - N/A   Clear
9:00 PM 82 °F - 49 °F 22% 29.94 in 6 mi NE 6.9 mph - -  
9:20 PM 80.6 °F - 50.0 °F 34% 29.95 in - NE 6.9 mph - N/A   Clear
9:50 PM 78.8 °F - 53.6 °F 42% 29.95 in - East 4.6 mph - N/A   Clear
10:20 PM 78.8 °F - 51.8 °F 39% 29.95 in - East 4.6 mph - N/A   Clear
10:50 PM 78.8 °F - 50.0 °F 36% 29.95 in - ENE 5.8 mph - N/A   Clear
11:20 PM 78.8 °F - 50.0 °F 36% 29.95 in - ENE 5.8 mph - N/A   Clear
11:50 PM 77.0 °F - 51.8 °F 41% 29.95 in - East 3.5 mph - N/A   Clear